User: anonymous   Login
Location: Unspecified
(0.0000°N, 0.0000°E)
Time: 22:35:17
(UTC+00:00)
Language:

Alouette 1 - Orbit

View from above orbital plane
View from above orbital plane
View from above satellite
View from above satellite

Ground track
Ground track

The orbit data is extracted from the following two-line orbital elements,

1 00424U 62049A   17351.84812035  .00000055  00000-0  53316-4 0  9991
2 00424  80.4684  85.5654 0022340 322.3732 177.5264 13.69095273756609
Epoch (UTC): 17 December 2017 20:21:17
Eccentricity: 0.0022340
inclination: 80.4684°
perigee height: 986 km
apogee height: 1019 km
right ascension of ascending node: 85.5654°
argument of perigee: 322.3732°
revolutions per day: 13.69095273
mean anomaly at epoch: 177.5264°
orbit number at epoch: 75660

The dashed part of the orbit path shows where the satellite is in the earth's shadow,  

DLR